owner,sensor,date,latitude,longitude,air_temperature,qcFlag 
DISL,ioos:station:DISL:MHPA:1,2011-03-01T00:00:00Z,30.6671,-87.9365,21.54,1111122 
DISL,ioos:station:DISL:MHPA:1,2011-03-01T00:30:00Z,30.6671,-87.9365,21.38,1111122 
DISL,ioos:station:DISL:MHPA:1,2011-03-01T01:00:00Z,30.6671,-87.9365,21.17,1111122 
DISL,ioos:station:DISL:MHPA:1,2011-03-01T01:30:00Z,30.6671,-87.9365,21.0,1111122 
DISL,ioos:station:DISL:MHPA:1,2011-03-01T02:00:00Z,30.6671,-87.9365,19.76,1111122 
DISL,ioos:station:DISL:MHPA:1,2011-03-01T02:30:00Z,30.6671,-87.9365,19.16,1111122 
DISL,ioos:station:DISL:MHPA:1,2011-03-01T03:00:00Z,30.6671,-87.9365,18.92,1111122 
DISL,ioos:station:DISL:MHPA:1,2011-03-01T03:30:00Z,30.6671,-87.9365,18.68,1111122 
DISL,ioos:station:DISL:MHPA:1,2011-03-01T04:00:00Z,30.6671,-87.9365,18.57,1111122 
DISL,ioos:station:DISL:MHPA:1,2011-03-01T04:30:00Z,30.6671,-87.9365,18.76,1111122 
DISL,ioos:station:DISL:MHPA:1,2011-03-01T05:00:00Z,30.6671,-87.9365,18.77,1111122 
DISL,ioos:station:DISL:MHPA:1,2011-03-01T05:30:00Z,30.6671,-87.9365,18.48,1111122 
DISL,ioos:station:DISL:MHPA:1,2011-03-01T06:00:00Z,30.6671,-87.9365,17.8,1111122 
DISL,ioos:station:DISL:MHPA:1,2011-03-01T06:30:00Z,30.6671,-87.9365,17.06,1111122 
DISL,ioos:station:DISL:MHPA:1,2011-03-01T07:00:00Z,30.6671,-87.9365,16.35,1111122 
DISL,ioos:station:DISL:MHPA:1,2011-03-01T07:30:00Z,30.6671,-87.9365,15.71,1111122 
DISL,ioos:station:DISL:MHPA:1,2011-03-01T08:00:00Z,30.6671,-87.9365,15.11,1111122 
DISL,ioos:station:DISL:MHPA:1,2011-03-01T08:30:00Z,30.6671,-87.9365,14.47,1111122 
DISL,ioos:station:DISL:MHPA:1,2011-03-01T09:00:00Z,30.6671,-87.9365,13.81,1111122 
DISL,ioos:station:DISL:MHPA:1,2011-03-01T09:30:00Z,30.6671,-87.9365,13.47,1111122 
DISL,ioos:station:DISL:MHPA:1,2011-03-01T10:00:00Z,30.6671,-87.9365,13.25,1111122 
DISL,ioos:station:DISL:MHPA:1,2011-03-01T10:30:00Z,30.6671,-87.9365,13.11,1111122 
DISL,ioos:station:DISL:MHPA:1,2011-03-01T11:00:00Z,30.6671,-87.9365,12.59,1111122 
DISL,ioos:station:DISL:MHPA:1,2011-03-01T11:30:00Z,30.6671,-87.9365,12.19,1111122 
DISL,ioos:station:DISL:MHPA:1,2011-03-01T12:00:00Z,30.6671,-87.9365,11.66,1111122 
DISL,ioos:station:DISL:MHPA:1,2011-03-01T12:30:00Z,30.6671,-87.9365,11.21,1111122 
DISL,ioos:station:DISL:MHPA:1,2011-03-01T13:00:00Z,30.6671,-87.9365,11.6,1111122 
DISL,ioos:station:DISL:MHPA:1,2011-03-01T13:30:00Z,30.6671,-87.9365,11.93,1111122 
DISL,ioos:station:DISL:MHPA:1,2011-03-01T14:00:00Z,30.6671,-87.9365,11.9,1111122 
DISL,ioos:station:DISL:MHPA:1,2011-03-01T14:30:00Z,30.6671,-87.9365,12.69,1111122 
DISL,ioos:station:DISL:MHPA:1,2011-03-01T15:00:00Z,30.6671,-87.9365,13.26,1111122 
DISL,ioos:station:DISL:MHPA:1,2011-03-01T15:30:00Z,30.6671,-87.9365,13.4,1111122 
DISL,ioos:station:DISL:MHPA:1,2011-03-01T16:00:00Z,30.6671,-87.9365,14.16,1111122 
DISL,ioos:station:DISL:MHPA:1,2011-03-01T16:30:00Z,30.6671,-87.9365,15.37,1111122 
DISL,ioos:station:DISL:MHPA:1,2011-03-01T17:00:00Z,30.6671,-87.9365,16.33,1111122 
DISL,ioos:station:DISL:MHPA:1,2011-03-01T17:30:00Z,30.6671,-87.9365,16.93,1111122 
DISL,ioos:station:DISL:MHPA:1,2011-03-01T18:00:00Z,30.6671,-87.9365,17.99,1111122 
DISL,ioos:station:DISL:MHPA:1,2011-03-01T18:30:00Z,30.6671,-87.9365,18.8,1111122 
DISL,ioos:station:DISL:MHPA:1,2011-03-01T19:00:00Z,30.6671,-87.9365,19.17,1111122 
DISL,ioos:station:DISL:MHPA:1,2011-03-01T19:30:00Z,30.6671,-87.9365,20.34,1111122 
DISL,ioos:station:DISL:MHPA:1,2011-03-01T20:00:00Z,30.6671,-87.9365,20.94,1111122 
DISL,ioos:station:DISL:MHPA:1,2011-03-01T20:30:00Z,30.6671,-87.9365,21.72,1111122 
DISL,ioos:station:DISL:MHPA:1,2011-03-01T21:00:00Z,30.6671,-87.9365,22.25,1111122 
DISL,ioos:station:DISL:MHPA:1,2011-03-01T21:30:00Z,30.6671,-87.9365,22.42,1111122 
DISL,ioos:station:DISL:MHPA:1,2011-03-01T22:00:00Z,30.6671,-87.9365,22.58,1111122 
DISL,ioos:station:DISL:MHPA:1,2011-03-01T22:30:00Z,30.6671,-87.9365,22.63,1111122 
DISL,ioos:station:DISL:MHPA:1,2011-03-01T23:00:00Z,30.6671,-87.9365,22.45,1111122 
DISL,ioos:station:DISL:MHPA:1,2011-03-01T23:30:00Z,30.6671,-87.9365,21.46,1111122 
DISL,ioos:station:DISL:MHPA:1,2011-03-02T00:00:00Z,30.6671,-87.9365,19.32,1111122 
DISL,ioos:station:DISL:MHPA:1,2011-03-02T00:30:00Z,30.6671,-87.9365,18.46,1111122 
DISL,ioos:station:DISL:MHPA:1,2011-03-02T01:00:00Z,30.6671,-87.9365,17.77,1111122 
DISL,ioos:station:DISL:MHPA:1,2011-03-02T01:30:00Z,30.6671,-87.9365,17.28,1111122 
DISL,ioos:station:DISL:MHPA:1,2011-03-02T02:00:00Z,30.6671,-87.9365,16.82,1111122 
DISL,ioos:station:DISL:MHPA:1,2011-03-02T02:30:00Z,30.6671,-87.9365,16.53,1111122 
DISL,ioos:station:DISL:MHPA:1,2011-03-02T03:00:00Z,30.6671,-87.9365,15.96,1111122 
DISL,ioos:station:DISL:MHPA:1,2011-03-02T03:30:00Z,30.6671,-87.9365,15.7,1111122 
DISL,ioos:station:DISL:MHPA:1,2011-03-02T04:00:00Z,30.6671,-87.9365,14.94,1111122 
DISL,ioos:station:DISL:MHPA:1,2011-03-02T04:30:00Z,30.6671,-87.9365,14.79,1111122 
DISL,ioos:station:DISL:MHPA:1,2011-03-02T05:00:00Z,30.6671,-87.9365,14.77,1111122 
DISL,ioos:station:DISL:MHPA:1,2011-03-02T05:30:00Z,30.6671,-87.9365,14.64,1111122 
DISL,ioos:station:DISL:MHPA:1,2011-03-02T06:00:00Z,30.6671,-87.9365,14.5,1111122 
DISL,ioos:station:DISL:MHPA:1,2011-03-02T06:30:00Z,30.6671,-87.9365,14.11,1111122 
DISL,ioos:station:DISL:MHPA:1,2011-03-02T07:00:00Z,30.6671,-87.9365,12.82,1111122 
DISL,ioos:station:DISL:MHPA:1,2011-03-02T07:30:00Z,30.6671,-87.9365,12.76,1111122 
DISL,ioos:station:DISL:MHPA:1,2011-03-02T08:00:00Z,30.6671,-87.9365,13.37,1111122 
DISL,ioos:station:DISL:MHPA:1,2011-03-02T08:30:00Z,30.6671,-87.9365,12.86,1111122 
DISL,ioos:station:DISL:MHPA:1,2011-03-02T09:00:00Z,30.6671,-87.9365,11.84,1111122 
DISL,ioos:station:DISL:MHPA:1,2011-03-02T09:30:00Z,30.6671,-87.9365,12.85,1111122 
DISL,ioos:station:DISL:MHPA:1,2011-03-02T10:00:00Z,30.6671,-87.9365,12.38,1111122 
DISL,ioos:station:DISL:MHPA:1,2011-03-02T10:30:00Z,30.6671,-87.9365,12.46,1111122 
DISL,ioos:station:DISL:MHPA:1,2011-03-02T11:00:00Z,30.6671,-87.9365,12.63,1111122 
DISL,ioos:station:DISL:MHPA:1,2011-03-02T11:30:00Z,30.6671,-87.9365,12.49,1111122 
DISL,ioos:station:DISL:MHPA:1,2011-03-02T12:00:00Z,30.6671,-87.9365,12.76,1111122 
DISL,ioos:station:DISL:MHPA:1,2011-03-02T12:30:00Z,30.6671,-87.9365,12.49,1111122 
DISL,ioos:station:DISL:MHPA:1,2011-03-02T13:00:00Z,30.6671,-87.9365,13.18,1111122 
DISL,ioos:station:DISL:MHPA:1,2011-03-02T13:30:00Z,30.6671,-87.9365,14.31,1111122 
DISL,ioos:station:DISL:MHPA:1,2011-03-02T14:00:00Z,30.6671,-87.9365,15.02,1111122 
DISL,ioos:station:DISL:MHPA:1,2011-03-02T14:30:00Z,30.6671,-87.9365,16.0,1111122 
DISL,ioos:station:DISL:MHPA:1,2011-03-02T15:00:00Z,30.6671,-87.9365,16.51,1111122 
DISL,ioos:station:DISL:MHPA:1,2011-03-02T15:30:00Z,30.6671,-87.9365,17.42,1111122 
DISL,ioos:station:DISL:MHPA:1,2011-03-02T16:00:00Z,30.6671,-87.9365,18.13,1111122 
DISL,ioos:station:DISL:MHPA:1,2011-03-02T16:30:00Z,30.6671,-87.9365,18.49,1111122 
DISL,ioos:station:DISL:MHPA:1,2011-03-02T17:00:00Z,30.6671,-87.9365,18.9,1111122 
DISL,ioos:station:DISL:MHPA:1,2011-03-02T17:30:00Z,30.6671,-87.9365,19.22,1111122 
DISL,ioos:station:DISL:MHPA:1,2011-03-02T18:00:00Z,30.6671,-87.9365,19.66,1111122 
DISL,ioos:station:DISL:MHPA:1,2011-03-02T18:30:00Z,30.6671,-87.9365,19.65,1111122 
DISL,ioos:station:DISL:MHPA:1,2011-03-02T19:00:00Z,30.6671,-87.9365,19.7,1111122 
DISL,ioos:station:DISL:MHPA:1,2011-03-02T19:30:00Z,30.6671,-87.9365,20.04,1111122 
DISL,ioos:station:DISL:MHPA:1,2011-03-02T20:00:00Z,30.6671,-87.9365,19.79,1111122 
DISL,ioos:station:DISL:MHPA:1,2011-03-02T20:30:00Z,30.6671,-87.9365,19.63,1111122 
DISL,ioos:station:DISL:MHPA:1,2011-03-02T21:00:00Z,30.6671,-87.9365,18.38,1111122 
DISL,ioos:station:DISL:MHPA:1,2011-03-02T21:30:00Z,30.6671,-87.9365,18.41,1111122 
DISL,ioos:station:DISL:MHPA:1,2011-03-02T22:00:00Z,30.6671,-87.9365,18.57,1111122 
DISL,ioos:station:DISL:MHPA:1,2011-03-02T22:30:00Z,30.6671,-87.9365,18.48,1111122 
DISL,ioos:station:DISL:MHPA:1,2011-03-02T23:00:00Z,30.6671,-87.9365,18.36,1111122 
DISL,ioos:station:DISL:MHPA:1,2011-03-02T23:30:00Z,30.6671,-87.9365,18.29,1111122 
DISL,ioos:station:DISL:MHPA:1,2011-03-03T00:00:00Z,30.6671,-87.9365,18.22,1111122 
DISL,ioos:station:DISL:MHPA:1,2011-03-03T00:30:00Z,30.6671,-87.9365,18.15,1111122 
DISL,ioos:station:DISL:MHPA:1,2011-03-03T01:00:00Z,30.6671,-87.9365,17.92,1111122 
DISL,ioos:station:DISL:MHPA:1,2011-03-03T01:30:00Z,30.6671,-87.9365,17.84,1111122 
DISL,ioos:station:DISL:MHPA:1,2011-03-03T02:00:00Z,30.6671,-87.9365,16.42,1111122 
DISL,ioos:station:DISL:MHPA:1,2011-03-03T02:30:00Z,30.6671,-87.9365,16.09,1111122 
DISL,ioos:station:DISL:MHPA:1,2011-03-03T03:00:00Z,30.6671,-87.9365,15.39,1111122 
DISL,ioos:station:DISL:MHPA:1,2011-03-03T03:30:00Z,30.6671,-87.9365,15.12,1111122 
DISL,ioos:station:DISL:MHPA:1,2011-03-03T04:00:00Z,30.6671,-87.9365,14.53,1111122 
DISL,ioos:station:DISL:MHPA:1,2011-03-03T04:30:00Z,30.6671,-87.9365,13.86,1111122 
DISL,ioos:station:DISL:MHPA:1,2011-03-03T05:00:00Z,30.6671,-87.9365,13.05,1111122 
DISL,ioos:station:DISL:MHPA:1,2011-03-03T05:30:00Z,30.6671,-87.9365,12.88,1111122 
DISL,ioos:station:DISL:MHPA:1,2011-03-03T06:00:00Z,30.6671,-87.9365,12.91,1111122 
DISL,ioos:station:DISL:MHPA:1,2011-03-03T06:30:00Z,30.6671,-87.9365,12.59,1111122 
DISL,ioos:station:DISL:MHPA:1,2011-03-03T07:00:00Z,30.6671,-87.9365,12.27,1111122 
DISL,ioos:station:DISL:MHPA:1,2011-03-03T07:30:00Z,30.6671,-87.9365,12.22,1111122 
DISL,ioos:station:DISL:MHPA:1,2011-03-03T08:00:00Z,30.6671,-87.9365,12.34,1111122 
DISL,ioos:station:DISL:MHPA:1,2011-03-03T08:30:00Z,30.6671,-87.9365,12.14,1111122 
DISL,ioos:station:DISL:MHPA:1,2011-03-03T09:00:00Z,30.6671,-87.9365,12.0,1111122 
DISL,ioos:station:DISL:MHPA:1,2011-03-03T09:30:00Z,30.6671,-87.9365,13.89,1111122 
DISL,ioos:station:DISL:MHPA:1,2011-03-03T10:00:00Z,30.6671,-87.9365,13.86,1111122 
DISL,ioos:station:DISL:MHPA:1,2011-03-03T10:30:00Z,30.6671,-87.9365,14.49,1111122 
DISL,ioos:station:DISL:MHPA:1,2011-03-03T11:00:00Z,30.6671,-87.9365,14.21,1111122 
DISL,ioos:station:DISL:MHPA:1,2011-03-03T11:30:00Z,30.6671,-87.9365,13.8,1111122 
DISL,ioos:station:DISL:MHPA:1,2011-03-03T12:00:00Z,30.6671,-87.9365,13.58,1111122 
DISL,ioos:station:DISL:MHPA:1,2011-03-03T12:30:00Z,30.6671,-87.9365,13.52,1111122 
DISL,ioos:station:DISL:MHPA:1,2011-03-03T13:00:00Z,30.6671,-87.9365,14.0,1111122 
DISL,ioos:station:DISL:MHPA:1,2011-03-03T13:30:00Z,30.6671,-87.9365,14.67,1111122 
DISL,ioos:station:DISL:MHPA:1,2011-03-03T14:00:00Z,30.6671,-87.9365,15.36,1111122 
DISL,ioos:station:DISL:MHPA:1,2011-03-03T14:30:00Z,30.6671,-87.9365,16.54,1111122 
DISL,ioos:station:DISL:MHPA:1,2011-03-03T15:00:00Z,30.6671,-87.9365,18.34,1111122 
DISL,ioos:station:DISL:MHPA:1,2011-03-03T15:30:00Z,30.6671,-87.9365,18.63,1111122 
DISL,ioos:station:DISL:MHPA:1,2011-03-03T16:00:00Z,30.6671,-87.9365,19.13,1111122 
DISL,ioos:station:DISL:MHPA:1,2011-03-03T16:30:00Z,30.6671,-87.9365,19.75,1111122 
DISL,ioos:station:DISL:MHPA:1,2011-03-03T17:00:00Z,30.6671,-87.9365,19.95,1111122 
DISL,ioos:station:DISL:MHPA:1,2011-03-03T17:30:00Z,30.6671,-87.9365,20.3,1111122 
DISL,ioos:station:DISL:MHPA:1,2011-03-03T18:00:00Z,30.6671,-87.9365,20.06,1111122 
DISL,ioos:station:DISL:MHPA:1,2011-03-03T18:30:00Z,30.6671,-87.9365,19.76,1111122 
DISL,ioos:station:DISL:MHPA:1,2011-03-03T19:00:00Z,30.6671,-87.9365,19.75,1111122 
DISL,ioos:station:DISL:MHPA:1,2011-03-03T19:30:00Z,30.6671,-87.9365,19.78,1111122 
DISL,ioos:station:DISL:MHPA:1,2011-03-03T20:00:00Z,30.6671,-87.9365,19.7,1111122 
DISL,ioos:station:DISL:MHPA:1,2011-03-03T20:30:00Z,30.6671,-87.9365,19.66,1111122 
DISL,ioos:station:DISL:MHPA:1,2011-03-03T21:00:00Z,30.6671,-87.9365,19.66,1111122 
DISL,ioos:station:DISL:MHPA:1,2011-03-03T21:30:00Z,30.6671,-87.9365,19.88,1111122 
DISL,ioos:station:DISL:MHPA:1,2011-03-03T22:00:00Z,30.6671,-87.9365,19.88,1111122 
DISL,ioos:station:DISL:MHPA:1,2011-03-03T22:30:00Z,30.6671,-87.9365,19.58,1111122 
DISL,ioos:station:DISL:MHPA:1,2011-03-03T23:00:00Z,30.6671,-87.9365,19.37,1111122 
DISL,ioos:station:DISL:MHPA:1,2011-03-03T23:30:00Z,30.6671,-87.9365,19.11,1111122 
DISL,ioos:station:DISL:MHPA:1,2011-03-04T00:00:00Z,30.6671,-87.9365,18.89,1111122 
DISL,ioos:station:DISL:MHPA:1,2011-03-04T00:30:00Z,30.6671,-87.9365,18.61,1111122 
DISL,ioos:station:DISL:MHPA:1,2011-03-04T01:00:00Z,30.6671,-87.9365,18.43,1111122 
DISL,ioos:station:DISL:MHPA:1,2011-03-04T01:30:00Z,30.6671,-87.9365,18.33,1111122 
DISL,ioos:station:DISL:MHPA:1,2011-03-04T02:00:00Z,30.6671,-87.9365,18.22,1111122 
DISL,ioos:station:DISL:MHPA:1,2011-03-04T02:30:00Z,30.6671,-87.9365,18.23,1111122 
DISL,ioos:station:DISL:MHPA:1,2011-03-04T03:00:00Z,30.6671,-87.9365,18.22,1111122 
DISL,ioos:station:DISL:MHPA:1,2011-03-04T03:30:00Z,30.6671,-87.9365,18.13,1111122 
DISL,ioos:station:DISL:MHPA:1,2011-03-04T04:00:00Z,30.6671,-87.9365,18.0,1111122 
DISL,ioos:station:DISL:MHPA:1,2011-03-04T04:30:00Z,30.6671,-87.9365,17.88,1111122 
DISL,ioos:station:DISL:MHPA:1,2011-03-04T05:00:00Z,30.6671,-87.9365,17.6,1111122 
DISL,ioos:station:DISL:MHPA:1,2011-03-04T05:30:00Z,30.6671,-87.9365,17.3,1111122 
DISL,ioos:station:DISL:MHPA:1,2011-03-04T06:00:00Z,30.6671,-87.9365,17.13,1111122 
DISL,ioos:station:DISL:MHPA:1,2011-03-04T06:30:00Z,30.6671,-87.9365,17.13,1111122 
DISL,ioos:station:DISL:MHPA:1,2011-03-04T07:00:00Z,30.6671,-87.9365,17.29,1111122 
DISL,ioos:station:DISL:MHPA:1,2011-03-04T07:30:00Z,30.6671,-87.9365,17.29,1111122 
DISL,ioos:station:DISL:MHPA:1,2011-03-04T08:00:00Z,30.6671,-87.9365,17.29,1111122 
DISL,ioos:station:DISL:MHPA:1,2011-03-04T08:30:00Z,30.6671,-87.9365,17.68,1111122 
DISL,ioos:station:DISL:MHPA:1,2011-03-04T09:00:00Z,30.6671,-87.9365,17.79,1111122 
DISL,ioos:station:DISL:MHPA:1,2011-03-04T09:30:00Z,30.6671,-87.9365,17.78,1111122 
DISL,ioos:station:DISL:MHPA:1,2011-03-04T10:00:00Z,30.6671,-87.9365,17.7,1111122 
DISL,ioos:station:DISL:MHPA:1,2011-03-04T10:30:00Z,30.6671,-87.9365,17.74,1111122 
DISL,ioos:station:DISL:MHPA:1,2011-03-04T11:00:00Z,30.6671,-87.9365,17.72,1111122 
DISL,ioos:station:DISL:MHPA:1,2011-03-04T11:30:00Z,30.6671,-87.9365,17.66,1111122 
DISL,ioos:station:DISL:MHPA:1,2011-03-04T12:00:00Z,30.6671,-87.9365,17.64,1111122 
DISL,ioos:station:DISL:MHPA:1,2011-03-04T12:30:00Z,30.6671,-87.9365,17.38,1111122 
DISL,ioos:station:DISL:MHPA:1,2011-03-04T13:00:00Z,30.6671,-87.9365,17.37,1111122 
DISL,ioos:station:DISL:MHPA:1,2011-03-04T13:30:00Z,30.6671,-87.9365,17.57,1111122 
DISL,ioos:station:DISL:MHPA:1,2011-03-04T14:00:00Z,30.6671,-87.9365,17.61,1111122 
DISL,ioos:station:DISL:MHPA:1,2011-03-04T14:30:00Z,30.6671,-87.9365,17.59,1111122 
DISL,ioos:station:DISL:MHPA:1,2011-03-04T15:00:00Z,30.6671,-87.9365,18.23,1111122 
DISL,ioos:station:DISL:MHPA:1,2011-03-04T15:30:00Z,30.6671,-87.9365,17.99,1111122 
DISL,ioos:station:DISL:MHPA:1,2011-03-04T16:00:00Z,30.6671,-87.9365,18.49,1111122 
DISL,ioos:station:DISL:MHPA:1,2011-03-04T16:30:00Z,30.6671,-87.9365,18.91,1111122 
DISL,ioos:station:DISL:MHPA:1,2011-03-04T17:00:00Z,30.6671,-87.9365,19.25,1111122 
DISL,ioos:station:DISL:MHPA:1,2011-03-04T17:30:00Z,30.6671,-87.9365,19.32,1111122 
DISL,ioos:station:DISL:MHPA:1,2011-03-04T18:00:00Z,30.6671,-87.9365,19.73,1111122 
DISL,ioos:station:DISL:MHPA:1,2011-03-04T18:30:00Z,30.6671,-87.9365,19.75,1111122 
DISL,ioos:station:DISL:MHPA:1,2011-03-04T19:00:00Z,30.6671,-87.9365,19.85,1111122 
DISL,ioos:station:DISL:MHPA:1,2011-03-04T19:30:00Z,30.6671,-87.9365,19.81,1111122 
DISL,ioos:station:DISL:MHPA:1,2011-03-04T20:00:00Z,30.6671,-87.9365,19.82,1111122 
DISL,ioos:station:DISL:MHPA:1,2011-03-04T20:30:00Z,30.6671,-87.9365,19.92,1111122 
DISL,ioos:station:DISL:MHPA:1,2011-03-04T21:00:00Z,30.6671,-87.9365,19.98,1111122 
DISL,ioos:station:DISL:MHPA:1,2011-03-04T21:30:00Z,30.6671,-87.9365,19.9,1111122 
DISL,ioos:station:DISL:MHPA:1,2011-03-04T22:00:00Z,30.6671,-87.9365,19.57,1111122 
DISL,ioos:station:DISL:MHPA:1,2011-03-04T22:30:00Z,30.6671,-87.9365,19.27,1111122 
DISL,ioos:station:DISL:MHPA:1,2011-03-04T23:00:00Z,30.6671,-87.9365,19.12,1111122 
DISL,ioos:station:DISL:MHPA:1,2011-03-04T23:30:00Z,30.6671,-87.9365,18.96,1111122 
DISL,ioos:station:DISL:MHPA:1,2011-03-05T00:00:00Z,30.6671,-87.9365,18.79,1111122 
DISL,ioos:station:DISL:MHPA:1,2011-03-05T00:30:00Z,30.6671,-87.9365,18.7,1111122 
DISL,ioos:station:DISL:MHPA:1,2011-03-05T01:00:00Z,30.6671,-87.9365,18.6,1111122 
DISL,ioos:station:DISL:MHPA:1,2011-03-05T01:30:00Z,30.6671,-87.9365,18.57,1111122 
DISL,ioos:station:DISL:MHPA:1,2011-03-05T02:00:00Z,30.6671,-87.9365,18.67,1111122 
DISL,ioos:station:DISL:MHPA:1,2011-03-05T02:30:00Z,30.6671,-87.9365,18.7,1111122 
DISL,ioos:station:DISL:MHPA:1,2011-03-05T03:00:00Z,30.6671,-87.9365,18.76,1111122 
DISL,ioos:station:DISL:MHPA:1,2011-03-05T03:30:00Z,30.6671,-87.9365,18.75,1111122 
DISL,ioos:station:DISL:MHPA:1,2011-03-05T04:00:00Z,30.6671,-87.9365,18.77,1111122 
DISL,ioos:station:DISL:MHPA:1,2011-03-05T04:30:00Z,30.6671,-87.9365,18.96,1111122 
DISL,ioos:station:DISL:MHPA:1,2011-03-05T05:00:00Z,30.6671,-87.9365,19.15,1111122 
DISL,ioos:station:DISL:MHPA:1,2011-03-05T05:30:00Z,30.6671,-87.9365,18.82,1111122 
DISL,ioos:station:DISL:MHPA:1,2011-03-05T06:00:00Z,30.6671,-87.9365,18.16,1111122 
DISL,ioos:station:DISL:MHPA:1,2011-03-05T06:30:00Z,30.6671,-87.9365,17.66,1111122 
DISL,ioos:station:DISL:MHPA:1,2011-03-05T07:00:00Z,30.6671,-87.9365,17.96,1111122 
DISL,ioos:station:DISL:MHPA:1,2011-03-05T07:30:00Z,30.6671,-87.9365,17.59,1111122 
DISL,ioos:station:DISL:MHPA:1,2011-03-05T08:00:00Z,30.6671,-87.9365,17.55,1111122 
DISL,ioos:station:DISL:MHPA:1,2011-03-05T08:30:00Z,30.6671,-87.9365,17.61,1111122 
DISL,ioos:station:DISL:MHPA:1,2011-03-05T09:00:00Z,30.6671,-87.9365,17.61,1111122 
DISL,ioos:station:DISL:MHPA:1,2011-03-05T09:30:00Z,30.6671,-87.9365,17.2,1111122 
DISL,ioos:station:DISL:MHPA:1,2011-03-05T10:00:00Z,30.6671,-87.9365,17.44,1111122 
DISL,ioos:station:DISL:MHPA:1,2011-03-05T10:30:00Z,30.6671,-87.9365,17.5,1111122 
DISL,ioos:station:DISL:MHPA:1,2011-03-05T11:00:00Z,30.6671,-87.9365,17.4,1111122 
DISL,ioos:station:DISL:MHPA:1,2011-03-05T11:30:00Z,30.6671,-87.9365,17.38,1111122 
DISL,ioos:station:DISL:MHPA:1,2011-03-05T12:00:00Z,30.6671,-87.9365,17.44,1111122 
DISL,ioos:station:DISL:MHPA:1,2011-03-05T12:30:00Z,30.6671,-87.9365,17.47,1111122 
DISL,ioos:station:DISL:MHPA:1,2011-03-05T13:00:00Z,30.6671,-87.9365,17.8,1111122 
DISL,ioos:station:DISL:MHPA:1,2011-03-05T13:30:00Z,30.6671,-87.9365,18.04,1111122 
DISL,ioos:station:DISL:MHPA:1,2011-03-05T14:00:00Z,30.6671,-87.9365,18.4,1111122 
DISL,ioos:station:DISL:MHPA:1,2011-03-05T14:30:00Z,30.6671,-87.9365,18.88,1111122 
DISL,ioos:station:DISL:MHPA:1,2011-03-05T15:00:00Z,30.6671,-87.9365,19.06,1111122 
DISL,ioos:station:DISL:MHPA:1,2011-03-05T15:30:00Z,30.6671,-87.9365,19.54,1111122 
DISL,ioos:station:DISL:MHPA:1,2011-03-05T16:00:00Z,30.6671,-87.9365,19.48,1111122 
DISL,ioos:station:DISL:MHPA:1,2011-03-05T16:30:00Z,30.6671,-87.9365,19.49,1111122 
DISL,ioos:station:DISL:MHPA:1,2011-03-05T17:00:00Z,30.6671,-87.9365,19.96,1111122 
DISL,ioos:station:DISL:MHPA:1,2011-03-05T17:30:00Z,30.6671,-87.9365,20.29,1111122 
DISL,ioos:station:DISL:MHPA:1,2011-03-05T18:00:00Z,30.6671,-87.9365,19.96,1111122 
DISL,ioos:station:DISL:MHPA:1,2011-03-05T18:30:00Z,30.6671,-87.9365,20.09,1111122 
DISL,ioos:station:DISL:MHPA:1,2011-03-05T19:00:00Z,30.6671,-87.9365,20.09,1111122 
DISL,ioos:station:DISL:MHPA:1,2011-03-05T19:30:00Z,30.6671,-87.9365,19.93,1111122 
DISL,ioos:station:DISL:MHPA:1,2011-03-05T20:00:00Z,30.6671,-87.9365,19.9,1111122 
DISL,ioos:station:DISL:MHPA:1,2011-03-05T20:30:00Z,30.6671,-87.9365,19.59,1111122 
DISL,ioos:station:DISL:MHPA:1,2011-03-05T21:00:00Z,30.6671,-87.9365,19.7,1111122 
DISL,ioos:station:DISL:MHPA:1,2011-03-05T21:30:00Z,30.6671,-87.9365,19.58,1111122 
DISL,ioos:station:DISL:MHPA:1,2011-03-05T22:00:00Z,30.6671,-87.9365,19.02,1111122 
DISL,ioos:station:DISL:MHPA:1,2011-03-05T22:30:00Z,30.6671,-87.9365,18.97,1111122 
DISL,ioos:station:DISL:MHPA:1,2011-03-05T23:00:00Z,30.6671,-87.9365,18.51,1111122 
DISL,ioos:station:DISL:MHPA:1,2011-03-05T23:30:00Z,30.6671,-87.9365,17.37,1111122 
DISL,ioos:station:DISL:MHPA:1,2011-03-06T00:00:00Z,30.6671,-87.9365,17.96,1111122 
DISL,ioos:station:DISL:MHPA:1,2011-03-06T00:30:00Z,30.6671,-87.9365,17.87,1111122 
DISL,ioos:station:DISL:MHPA:1,2011-03-06T01:00:00Z,30.6671,-87.9365,17.62,1111122 
DISL,ioos:station:DISL:MHPA:1,2011-03-06T01:30:00Z,30.6671,-87.9365,17.43,1111122 
DISL,ioos:station:DISL:MHPA:1,2011-03-06T02:00:00Z,30.6671,-87.9365,17.34,1111122 
DISL,ioos:station:DISL:MHPA:1,2011-03-06T02:30:00Z,30.6671,-87.9365,15.21,1111122 
DISL,ioos:station:DISL:MHPA:1,2011-03-06T03:00:00Z,30.6671,-87.9365,14.95,1111122 
DISL,ioos:station:DISL:MHPA:1,2011-03-06T03:30:00Z,30.6671,-87.9365,14.7,1111122 
DISL,ioos:station:DISL:MHPA:1,2011-03-06T04:00:00Z,30.6671,-87.9365,14.62,1111122 
DISL,ioos:station:DISL:MHPA:1,2011-03-06T04:30:00Z,30.6671,-87.9365,14.3,1111122 
DISL,ioos:station:DISL:MHPA:1,2011-03-06T05:00:00Z,30.6671,-87.9365,14.1,1111122 
DISL,ioos:station:DISL:MHPA:1,2011-03-06T05:30:00Z,30.6671,-87.9365,14.23,1111122 
DISL,ioos:station:DISL:MHPA:1,2011-03-06T06:00:00Z,30.6671,-87.9365,14.14,1111122 
DISL,ioos:station:DISL:MHPA:1,2011-03-06T06:30:00Z,30.6671,-87.9365,13.98,1111122 
DISL,ioos:station:DISL:MHPA:1,2011-03-06T07:00:00Z,30.6671,-87.9365,13.3,1111122 
DISL,ioos:station:DISL:MHPA:1,2011-03-06T07:30:00Z,30.6671,-87.9365,12.45,1111122 
DISL,ioos:station:DISL:MHPA:1,2011-03-06T08:00:00Z,30.6671,-87.9365,12.52,1111122 
DISL,ioos:station:DISL:MHPA:1,2011-03-06T08:30:00Z,30.6671,-87.9365,11.88,1111122 
DISL,ioos:station:DISL:MHPA:1,2011-03-06T09:00:00Z,30.6671,-87.9365,11.39,1111122 
DISL,ioos:station:DISL:MHPA:1,2011-03-06T09:30:00Z,30.6671,-87.9365,10.29,1111122 
DISL,ioos:station:DISL:MHPA:1,2011-03-06T10:00:00Z,30.6671,-87.9365,9.95,1111122 
DISL,ioos:station:DISL:MHPA:1,2011-03-06T10:30:00Z,30.6671,-87.9365,9.68,1111122 
DISL,ioos:station:DISL:MHPA:1,2011-03-06T11:00:00Z,30.6671,-87.9365,9.3,1111122 
DISL,ioos:station:DISL:MHPA:1,2011-03-06T11:30:00Z,30.6671,-87.9365,8.74,1111122 
DISL,ioos:station:DISL:MHPA:1,2011-03-06T12:00:00Z,30.6671,-87.9365,8.51,1111122 
DISL,ioos:station:DISL:MHPA:1,2011-03-06T12:30:00Z,30.6671,-87.9365,8.46,1111122 
DISL,ioos:station:DISL:MHPA:1,2011-03-06T13:00:00Z,30.6671,-87.9365,8.24,1111122 
DISL,ioos:station:DISL:MHPA:1,2011-03-06T13:30:00Z,30.6671,-87.9365,8.07,1111122 
DISL,ioos:station:DISL:MHPA:1,2011-03-06T14:00:00Z,30.6671,-87.9365,7.85,1111122 
DISL,ioos:station:DISL:MHPA:1,2011-03-06T14:30:00Z,30.6671,-87.9365,7.86,1111122 
DISL,ioos:station:DISL:MHPA:1,2011-03-06T15:00:00Z,30.6671,-87.9365,8.09,1111122 
DISL,ioos:station:DISL:MHPA:1,2011-03-06T15:30:00Z,30.6671,-87.9365,8.29,1111122 
DISL,ioos:station:DISL:MHPA:1,2011-03-06T16:00:00Z,30.6671,-87.9365,8.34,1111122 
DISL,ioos:station:DISL:MHPA:1,2011-03-06T16:30:00Z,30.6671,-87.9365,8.18,1111122 
DISL,ioos:station:DISL:MHPA:1,2011-03-06T17:00:00Z,30.6671,-87.9365,8.49,1111122 
DISL,ioos:station:DISL:MHPA:1,2011-03-06T17:30:00Z,30.6671,-87.9365,8.94,1111122 
DISL,ioos:station:DISL:MHPA:1,2011-03-06T18:00:00Z,30.6671,-87.9365,10.06,1111122 
DISL,ioos:station:DISL:MHPA:1,2011-03-06T18:30:00Z,30.6671,-87.9365,10.93,1111122 
DISL,ioos:station:DISL:MHPA:1,2011-03-06T19:00:00Z,30.6671,-87.9365,11.4,1111122 
DISL,ioos:station:DISL:MHPA:1,2011-03-06T19:30:00Z,30.6671,-87.9365,12.12,1111122 
DISL,ioos:station:DISL:MHPA:1,2011-03-06T20:00:00Z,30.6671,-87.9365,12.66,1111122 
DISL,ioos:station:DISL:MHPA:1,2011-03-06T20:30:00Z,30.6671,-87.9365,13.44,1111122 
DISL,ioos:station:DISL:MHPA:1,2011-03-06T21:00:00Z,30.6671,-87.9365,14.06,1111122 
DISL,ioos:station:DISL:MHPA:1,2011-03-06T21:30:00Z,30.6671,-87.9365,14.25,1111122 
DISL,ioos:station:DISL:MHPA:1,2011-03-06T22:00:00Z,30.6671,-87.9365,14.07,1111122 
DISL,ioos:station:DISL:MHPA:1,2011-03-06T22:30:00Z,30.6671,-87.9365,14.29,1111122 
DISL,ioos:station:DISL:MHPA:1,2011-03-06T23:00:00Z,30.6671,-87.9365,13.66,1111122 
DISL,ioos:station:DISL:MHPA:1,2011-03-06T23:30:00Z,30.6671,-87.9365,12.64,1111122 
DISL,ioos:station:DISL:MHPA:1,2011-03-07T00:00:00Z,30.6671,-87.9365,11.75,1111122 